Wind_Speed
13 14 14 13 12 12 13 12 11 12 13 13 13 13 13 13 13 13 14 14 14 14 15 15 14 14 13 14 14 14 14 15 15 15 15 14 14 14 14 13 14 14 14
14 14 14 14 14 14 14 14 14 13 13 13 14 13 14 14 13 13 13 14 14 14 14 14 14 14 14 14 14 15 15 15 15 15 15 15 15 15 14 14 15 15 14
16 15 14 15 15 15 15 15 15 15 14 14 14 14 15 15 14 14 14 15 15 16 15 15 15 15 15 15 15 15 15 16 16 16 16 15 15 15 15 15 16 15 15
15 15 14 15 15 15 15 15 15 16 15 14 14 14 15 15 14 14 15 16 16 17 17 17 16 17 16 16 15 16 16 16 17 17 17 17 16 16 15 16 16 16 16
15 16 15 15 16 16 15 16 16 16 16 15 15 15 15 16 16 15 16 16 16 17 18 17 16 16 17 17 17 17 17 17 17 17 17 17 17 17 16 15 16 16 16
16 17 17 17 17 18 17 16 16 16 16 16 15 15 16 16 16 16 16 16 16 16 17 17 16 16 17 17 18 17 17 17 17 17 17 17 17 17 17 16 16 16 16
17 18 19 18 18 19 18 16 17 16 16 16 16 16 17 17 17 16 16 17 17 17 18 18 17 16 16 16 17 17 17 17 18 19 18 18 18 18 17 17 17 17 16
18 19 19 19 19 20 19 18 17 17 16 16 17 16 16 17 17 17 17 18 19 19 19 19 17 15 15 16 16 17 18 18 18 19 19 19 19 19 18 18 18 17 17
18 18 19 20 20 19 19 17 17 17 17 16 16 17 17 17 17 18 19 19 19 18 18 18 17 16 16 16 16 16 17 18 18 18 18 19 19 19 19 19 18 18 17
18 19 19 19 20 20 19 18 18 18 18 17 17 17 17 18 18 18 19 19 19 19 18 17 17 17 16 16 16 16 16 17 17 18 18 18 19 20 19 19 19 19 18
18 19 19 18 18 18 19 19 18 18 17 18 17 17 18 18 18 18 19 20 20 19 18 18 17 17 17 16 16 16 16 16 16 16 16 17 18 19 19 19 19 18 18
20 19 19 18 17 17 17 18 18 18 18 17 17 18 18 18 18 18 19 19 20 19 19 19 18 18 17 16 16 16 16 16 16 16 16 16 17 17 18 18 18 18 18
20 19 19 19 19 19 19 19 19 19 18 18 18 19 18 18 18 18 18 18 18 18 18 19 19 18 18 16 16 15 15 15 15 15 15 15 16 16 16 16 17 17 17
20 19 20 20 20 21 20 20 19 20 19 20 20 19 18 18 17 17 17 17 18 18 19 18 18 17 17 17 15 15 15 15 15 15 14 14 15 15 15 15 16 17 17
21 21 21 21 21 21 21 20 20 19 20 20 19 18 18 18 17 17 17 17 17 18 18 17 17 16 16 16 16 15 15 15 15 15 14 13 14 14 14 15 16 16 16
22 22 22 22 22 21 21 21 21 20 20 20 19 19 19 18 17 17 17 17 17 17 17 17 16 15 15 15 15 15 14 14 14 14 13 13 13 14 15 16 16 16 16
24 24 24 24 23 23 22 22 21 21 21 21 20 20 20 19 18 17 17 17 17 17 16 16 16 16 15 15 14 13 13 13 13 13 13 13 13 14 15 15 15 15 16
25 25 25 24 24 23 23 22 22 22 22 22 20 20 20 19 18 18 18 18 18 18 17 16 16 15 15 14 14 13 13 12 12 12 13 14 15 15 16 15 15 15 15
26 25 25 24 24 23 23 23 23 22 22 21 21 20 20 19 19 18 18 18 18 18 17 16 16 15 15 15 15 14 14 13 13 13 13 15 15 16 16 16 15 15 15
27 26 26 26 25 24 23 23 22 21 20 21 20 20 19 19 18 18 18 19 18 18 17 16 15 15 15 15 15 15 15 14 14 14 14 14 15 16 17 17 16 16 16
26 25 25 25 25 24 23 22 22 21 21 21 20 20 19 19 19 18 18 19 18 17 17 16 16 15 15 15 15 15 15 14 14 14 13 14 14 14 15 16 17 17 17
25 25 25 24 23 22 21 22 22 22 21 22 21 21 21 21 20 19 19 19 18 18 17 17 16 16 15 15 16 15 15 15 15 14 14 15 15 15 15 16 17 17 18
25 24 24 24 23 23 22 22 22 23 23 22 22 21 22 22 22 21 20 19 18 18 17 17 16 16 16 15 15 15 15 15 15 15 14 15 15 15 16 16 16 17 17
24 24 24 24 24 23 22 21 22 22 22 22 22 22 22 22 22 22 21 19 19 18 17 17 16 16 15 16 16 16 16 15 15 15 15 16 16 16 16 17 17 17 17
25 24 24 24 24 23 22 21 21 21 21 22 22 22 22 22 22 22 22 21 19 19 19 18 17 16 16 16 16 16 16 15 15 15 16 16 17 17 17 17 17 17 17
25 25 24 24 24 24 23 22 22 21 21 21 22 21 21 21 21 21 21 21 20 19 19 18 17 16 16 16 15 15 16 16 15 14 14 15 16 16 16 16 16 16 17
Wind_Direction
295 297 300 298 295 294 289 287 290 295 296 295 296 293 296 300 302 304 306 304 303 299 297 294 292 286 278 276 277 276 273 271 268 266 264 262 263 262 260 258 256 255 257
292 294 295 295 294 293 294 291 293 293 296 295 296 294 294 297 299 300 302 302 303 302 298 296 292 287 280 278 277 275 273 271 267 266 265 263 263 261 260 258 257 255 253
287 290 289 288 289 290 292 292 292 292 292 292 293 294 292 295 298 298 299 300 300 300 296 294 290 286 279 277 276 274 274 272 266 264 264 265 263 262 259 257 256 254 252
284 285 289 285 283 287 289 290 294 295 293 290 290 293 293 293 294 296 297 299 300 300 298 294 291 285 281 277 274 274 273 270 266 263 261 263 263 259 258 257 256 256 252
282 282 285 283 280 283 285 283 287 292 294 291 288 290 292 291 291 292 296 300 303 304 301 297 292 286 281 278 274 274 273 268 266 264 262 262 261 259 259 258 258 259 256
280 279 279 278 277 279 279 281 282 287 291 288 285 287 291 292 291 293 296 298 301 304 302 299 296 290 283 280 276 274 271 268 266 264 262 261 261 261 260 258 259 258 256
280 279 276 275 276 275 276 280 285 286 290 286 283 284 286 289 291 293 295 298 298 300 300 300 296 292 286 281 278 275 273 270 267 264 262 260 260 260 259 256 256 256 257
279 276 275 276 276 276 276 280 280 284 288 288 285 284 286 286 287 292 295 296 296 297 297 297 295 293 291 286 281 277 275 271 268 265 261 259 258 258 257 256 254 255 257
274 275 277 277 277 276 274 275 277 284 288 291 290 285 287 286 287 290 293 295 295 296 296 295 294 294 293 288 282 279 276 273 268 264 259 257 256 256 255 255 255 255 257
272 277 278 275 276 275 274 272 276 283 286 289 293 290 289 289 290 292 294 296 294 294 294 292 292 294 293 289 283 278 277 275 272 267 259 257 255 254 255 256 255 255 257
274 277 277 275 272 272 274 274 279 283 285 288 292 293 292 292 292 292 293 295 296 292 291 291 291 294 294 290 286 277 276 273 272 267 262 258 258 255 254 255 256 256 258
273 276 276 272 276 274 274 275 280 282 284 288 292 293 292 291 289 290 292 295 296 291 288 288 290 292 293 291 287 278 275 273 270 265 263 258 255 254 255 253 252 255 256
271 271 273 271 272 272 271 273 278 280 284 291 293 294 293 291 289 289 292 294 297 295 291 287 287 286 288 287 282 278 275 272 268 265 262 258 255 252 252 253 252 251 252
272 270 272 271 270 272 271 273 278 279 282 288 291 292 291 291 291 290 291 293 296 298 295 291 288 287 285 283 279 278 276 272 267 262 259 258 254 251 251 252 252 249 247
273 273 274 274 273 273 273 275 277 280 283 286 289 289 291 291 291 291 293 294 295 299 298 293 288 285 285 285 282 279 276 273 267 262 259 255 254 250 248 249 249 250 250
275 276 275 273 273 274 276 276 277 280 282 283 287 289 288 287 287 291 294 295 297 300 299 295 290 286 287 287 286 285 279 271 267 260 258 255 256 255 250 248 248 250 253
272 274 274 273 273 274 275 276 275 277 279 281 282 285 288 286 285 289 292 294 295 298 297 294 292 289 286 285 286 286 282 276 271 263 258 256 255 253 251 250 250 251 252
269 271 273 272 272 272 272 273 274 274 276 278 280 282 285 284 283 288 290 291 293 293 293 291 290 289 285 283 283 284 284 280 276 269 260 255 253 253 251 251 253 254 255
269 271 271 270 270 270 271 273 272 272 274 276 277 279 280 283 285 285 287 288 290 291 290 288 287 286 285 286 284 283 283 279 276 273 267 260 256 255 254 255 255 256 256
268 269 268 270 271 271 273 272 270 269 272 273 275 276 277 280 285 286 286 286 287 288 288 286 286 286 285 285 285 283 282 278 275 274 270 264 259 257 255 255 254 256 259
267 266 266 268 269 271 271 270 269 269 269 270 273 274 277 278 281 283 284 285 284 284 285 283 282 283 283 280 282 284 282 276 273 274 268 265 262 259 258 256 256 257 258
265 266 266 268 269 270 272 272 269 269 268 269 272 273 275 276 278 280 281 283 282 285 283 283 279 279 279 279 279 279 280 277 275 274 269 266 262 261 264 263 262 262 263
265 266 266 266 268 271 272 271 271 270 268 269 271 272 273 274 277 278 277 279 281 283 281 281 278 277 278 278 277 277 279 279 277 273 269 266 262 262 265 265 264 267 269
264 263 264 266 268 269 269 270 270 270 269 269 270 270 272 273 274 275 275 275 277 276 276 279 276 273 274 275 276 277 278 279 278 272 270 269 266 264 265 265 266 268 270
264 263 263 264 265 266 267 269 270 269 269 269 270 271 272 273 273 273 273 272 271 273 273 272 272 273 273 274 273 276 277 279 277 274 271 269 267 264 266 269 269 271 272
262 263 264 263 264 264 265 267 267 268 269 268 268 269 271 270 272 272 271 269 266 267 269 269 270 270 271 275 273 274 276 278 279 275 273 269 267 267 267 268 269 272 272
Height
5874 5874 5873 5872 5871 5870 5870 5869 5869 5868 5867 5865 5864 5863 5862 5861 5860 5858 5857 5855 5854 5852 5851 5850 5848 5847 5846 5846 5845 5845 5845 5844 5844 5845 5845 5845 5844 5844 5844 5844 5845 5845 5845
5871 5870 5870 5869 5868 5867 5866 5865 5865 5865 5864 5863 5862 5861 5860 5858 5857 5856 5854 5852 5851 5849 5847 5846 5844 5843 5843 5842 5841 5841 5840 5840 5840 5840 5840 5840 5841 5840 5840 5840 5840 5841 5841
5868 5868 5866 5865 5865 5865 5864 5863 5862 5861 5860 5860 5858 5857 5856 5855 5854 5852 5851 5849 5847 5845 5843 5841 5840 5839 5838 5837 5837 5836 5836 5835 5835 5835 5836 5835 5836 5836 5836 5836 5836 5836 5836
5863 5863 5863 5861 5861 5861 5860 5859 5858 5857 5857 5856 5855 5853 5852 5851 5850 5849 5847 5845 5844 5842 5839 5837 5835 5834 5833 5832 5832 5831 5831 5830 5830 5830 5830 5831 5831 5831 5832 5832 5831 5832 5832
5859 5858 5858 5857 5856 5856 5856 5856 5855 5854 5853 5852 5851 5850 5849 5847 5846 5844 5843 5841 5840 5838 5835 5833 5831 5829 5828 5827 5826 5826 5825 5825 5824 5825 5825 5825 5825 5826 5826 5827 5827 5827 5827
5855 5854 5853 5853 5853 5852 5852 5851 5851 5850 5849 5848 5847 5846 5844 5843 5842 5840 5839 5837 5835 5833 5831 5828 5826 5824 5823 5822 5821 5820 5819 5819 5819 5819 5819 5819 5819 5820 5821 5821 5822 5822 5822
5850 5849 5849 5849 5848 5848 5847 5847 5846 5845 5845 5843 5842 5841 5840 5839 5838 5836 5834 5832 5831 5829 5826 5823 5821 5819 5818 5816 5815 5814 5813 5813 5813 5813 5813 5813 5814 5814 5815 5816 5816 5817 5817
5845 5844 5844 5843 5843 5842 5842 5842 5842 5841 5840 5839 5838 5836 5835 5834 5833 5831 5829 5828 5826 5824 5821 5819 5816 5814 5812 5810 5809 5808 5807 5806 5806 5806 5807 5807 5808 5808 5809 5810 5811 5812 5812
5839 5839 5838 5838 5837 5837 5837 5837 5837 5837 5836 5834 5833 5832 5830 5829 5828 5826 5825 5823 5820 5818 5816 5813 5811 5809 5807 5805 5804 5802 5801 5800 5800 5800 5800 5801 5801 5802 5803 5804 5805 5806 5807
5835 5834 5833 5832 5831 5831 5832 5832 5832 5832 5831 5830 5829 5827 5826 5824 5822 5821 5819 5817 5815 5813 5811 5809 5807 5804 5802 5800 5798 5797 5795 5794 5793 5793 5793 5794 5795 5796 5797 5798 5799 5800 5801
5830 5829 5827 5827 5827 5827 5827 5827 5827 5827 5826 5825 5823 5822 5820 5819 5817 5816 5814 5812 5810 5807 5806 5804 5802 5799 5797 5795 5793 5791 5790 5789 5788 5787 5788 5788 5789 5790 5791 5792 5794 5794 5795
5824 5824 5822 5822 5822 5822 5821 5822 5822 5821 5820 5819 5817 5816 5815 5813 5812 5810 5808 5806 5804 5801 5800 5798 5796 5794 5792 5790 5788 5786 5785 5784 5783 5783 5782 5783 5783 5784 5786 5787 5788 5789 5790
5818 5818 5818 5817 5818 5818 5817 5817 5817 5816 5815 5813 5812 5811 5809 5808 5806 5805 5803 5801 5798 5796 5794 5792 5790 5789 5787 5785 5783 5781 5780 5779 5778 5778 5778 5778 5778 5779 5781 5781 5783 5784 5785
5813 5813 5813 5813 5813 5812 5812 5812 5811 5810 5809 5808 5807 5805 5804 5802 5801 5799 5798 5796 5793 5791 5789 5786 5784 5783 5781 5780 5779 5777 5776 5775 5774 5773 5773 5773 5774 5775 5776 5777 5778 5778 5779
5807 5807 5807 5807 5807 5806 5806 5806 5806 5805 5804 5802 5801 5800 5799 5798 5796 5794 5793 5791 5789 5786 5784 5781 5779 5778 5777 5775 5773 5773 5771 5770 5769 5769 5769 5769 5770 5770 5771 5772 5773 5774 5774
5801 5801 5801 5801 5801 5801 5800 5800 5800 5799 5798 5797 5796 5795 5794 5793 5791 5790 5788 5786 5784 5782 5779 5777 5775 5773 5772 5770 5769 5768 5767 5766 5765 5765 5765 5765 5766 5766 5767 5768 5768 5769 5769
5794 5794 5794 5794 5794 5794 5794 5794 5793 5793 5792 5792 5791 5789 5788 5788 5786 5784 5783 5781 5779 5777 5775 5773 5771 5769 5768 5767 5765 5764 5763 5762 5761 5761 5761 5761 5762 5762 5763 5763 5764 5765 5765
5787 5787 5787 5787 5787 5786 5786 5786 5786 5786 5785 5785 5784 5783 5783 5782 5781 5779 5777 5776 5774 5772 5770 5768 5767 5765 5764 5763 5761 5760 5759 5758 5757 5757 5757 5757 5758 5758 5759 5759 5760 5760 5761
5779 5779 5779 5779 5779 5779 5779 5779 5779 5778 5778 5778 5777 5777 5777 5776 5774 5773 5772 5770 5769 5767 5765 5764 5762 5761 5760 5759 5757 5756 5755 5754 5754 5753 5753 5753 5754 5754 5755 5755 5756 5756 5756
5771 5771 5771 5771 5771 5772 5772 5772 5772 5772 5772 5771 5771 5770 5770 5769 5769 5768 5767 5765 5764 5762 5761 5759 5758 5757 5756 5755 5753 5752 5751 5750 5750 5749 5749 5749 5749 5749 5750 5750 5751 5752 5752
5763 5763 5763 5764 5764 5764 5764 5765 5765 5765 5765 5765 5765 5764 5763 5763 5763 5762 5761 5760 5758 5757 5756 5755 5753 5752 5751 5750 5749 5747 5746 5746 5745 5745 5745 5745 5745 5745 5745 5745 5746 5747 5747
5756 5756 5756 5756 5757 5757 5757 5757 5758 5758 5758 5758 5758 5757 5757 5757 5756 5756 5755 5754 5753 5752 5751 5749 5748 5747 5746 5745 5744 5743 5742 5741 5741 5741 5740 5740 5740 5740 5740 5740 5741 5741 5741
5748 5749 5749 5750 5750 5750 5750 5750 5750 5750 5751 5751 5751 5750 5750 5750 5749 5749 5748 5748 5747 5746 5745 5744 5743 5743 5741 5740 5740 5738 5738 5737 5736 5736 5736 5735 5735 5735 5735 5735 5735 5735 5735
5740 5741 5742 5743 5743 5743 5743 5743 5743 5743 5743 5743 5744 5743 5743 5743 5743 5742 5742 5741 5741 5740 5740 5739 5739 5738 5737 5736 5735 5734 5733 5732 5731 5731 5731 5730 5730 5730 5730 5730 5730 5730 5730
5732 5733 5734 5735 5736 5736 5736 5736 5736 5736 5736 5736 5736 5736 5736 5736 5735 5735 5735 5735 5735 5734 5734 5734 5733 5732 5732 5731 5730 5729 5728 5727 5726 5726 5725 5725 5725 5725 5725 5725 5725 5725 5725
5724 5726 5727 5728 5728 5729 5729 5729 5729 5729 5729 5729 5729 5729 5729 5729 5728 5728 5727 5727 5728 5728 5728 5728 5728 5727 5727 5726 5725 5724 5723 5722 5721 5721 5720 5720 5720 5720 5720 5720 5720 5720 5720